Voltar ao catálogo

GONETS M 04

AtivoComunicaçõesPO
NORAD 38736·PAYLOAD·🇷🇺 Russia

Lançado Jul 28, 2012 de Plesetsk Cosmodrome

Loading…

Próximas Passagens (próximas 24 horas)

TLE

AtualizadoSource: Space-Track

Época: Sep 14, 2026, 13:07 UTC

1 38736U 12041D   26257.54690486 -.00000022  00000-0 -22439-3 0  9998
2 38736  82.4844  14.9627 0024890 215.9507 143.9900 12.43906653634064

Acompanhe GONETS M 04 em tempo real com AllMySat

Download on the App Store